Weather History for KLVS - January, 2014

Change the Weather History Date:

Sunday, January 12, 2014

  Actual Average Record
Temperature  
Mean Temperature 40 °F -  
Max Temperature 52 °F 46 °F 67 °F (1953)
Min Temperature 26 °F 18 °F -26 °F (1963)
Degree Days  
Heating Degree Days 25    
Moisture  
Dew Point 10 °F    
Average Humidity 30    
Maximum Humidity 46    
Minimum Humidity 14    
Precipitation  
Precipitation 0.00 in - - ()
Sea Level Pressure  
Sea Level Pressure 29.72 in    
Wind  
Wind Speed 23 mph (West)    
Max Wind Speed 38 mph    
Max Gust Speed 51 mph    
Visibility 10 miles    
Events      
Averages and records for this station are not official NWS values.
T = Trace of Precipitation, MM = Missing Value Source: NWS Daily Summary

Daily Weather History Graph

Daily Weather History Graph

Search for Another Location

Airport or City:

Trip Planner

Search our weather history database for the weather conditions in past years. The results will help you decide how hot, cold, wet, or windy it might be!

Date:

Astronomy

Jan. 12, 2014 Rise Set
Actual Time 7:10 AM MST 5:07 PM MST
Civil Twilight 6:42 AM MST 5:35 PM MST
Nautical Twilight 6:10 AM MST 6:07 PM MST
Astronomical Twilight 5:40 AM MST 6:38 PM MST
Moon 2:37 PM MST (1/12) 4:12 AM MST (1/12)
Length of Visible Light 10h 53m
Length of Day
9h 57m
Waxing Gibbous, 90% of the Moon is Illuminated
Jan 12
Waxing Gibbous
Jan 15
Full
Jan 23
Last Quarter
Jan 30
New
Feb 6
First Quarter

Hourly Weather History & Observations

Time (MST) Temp. Windchill Dew Point Humidity Pressure Visibility Wind Dir Wind Speed Gust Speed Precip Events Conditions
12:53 AM 46.0 °F 37.4 °F 10.0 °F 23% 29.68 in 10.0 mi SW 25.3 mph - N/A   Clear
1:53 AM 39.9 °F 30.5 °F 16.0 °F 38% 29.70 in 10.0 mi SSW 19.6 mph - N/A   Clear
2:53 AM 37.9 °F 27.1 °F 17.1 °F 43% 29.69 in 10.0 mi SSW 23.0 mph - N/A   Clear
3:53 AM 37.0 °F 25.9 °F 18.0 °F 46% 29.66 in 10.0 mi South 23.0 mph - N/A   Clear
4:53 AM 37.0 °F 27.0 °F 18.0 °F 46% 29.66 in 10.0 mi SSW 18.4 mph - N/A   Clear
5:53 AM 41.0 °F 30.7 °F 17.1 °F 38% 29.65 in 10.0 mi SW 25.3 mph - N/A   Clear
6:53 AM 39.9 °F 29.2 °F 16.0 °F 38% 29.64 in 10.0 mi SW 25.3 mph 35.7 mph N/A   Clear
7:53 AM 44.1 °F 36.2 °F 14.0 °F 30% 29.65 in 10.0 mi West 18.4 mph 31.1 mph N/A   Clear
8:28 AM 44.1 °F 38.6 °F 15.1 °F 31% 29.80 in 10.0 mi SSW 10.4 mph 19.6 mph N/A   Clear
8:53 AM 46.9 °F - 12.0 °F 24% 29.65 in 10.0 mi West 17.3 mph 41.4 mph N/A   Clear
9:53 AM 51.1 °F - 14.0 °F 23% 29.62 in 10.0 mi West 28.8 mph 36.8 mph N/A   Clear
10:53 AM 52.0 °F - 14.0 °F 22% 29.61 in 10.0 mi WSW 29.9 mph 41.4 mph N/A   Clear
11:53 AM 51.1 °F - 12.0 °F 21% 29.60 in 10.0 mi West 27.6 mph 46.0 mph N/A   Clear
12:53 PM 51.1 °F - 12.0 °F 21% 29.56 in 10.0 mi West 26.5 mph 40.3 mph N/A   Clear
1:53 PM 50.0 °F - 10.0 °F 20% 29.60 in 10.0 mi West 34.5 mph 50.6 mph N/A   Clear
2:53 PM 48.0 °F - 1.0 °F 14% 29.65 in 10.0 mi West 38.0 mph 42.6 mph N/A   Partly Cloudy
3:53 PM 46.0 °F 37.2 °F 7.0 °F 20% 29.69 in 10.0 mi West 26.5 mph - N/A   Scattered Clouds
4:53 PM 39.9 °F 31.8 °F 8.1 °F 27% 29.76 in 10.0 mi WNW 15.0 mph - N/A   Scattered Clouds
5:53 PM 35.1 °F 24.1 °F 5.0 °F 28% 29.81 in 10.0 mi NW 19.6 mph 25.3 mph N/A   Clear
6:53 PM 33.1 °F 21.9 °F 3.0 °F 28% 29.84 in 10.0 mi NW 18.4 mph 27.6 mph N/A   Clear
7:53 PM 32.0 °F 19.5 °F 6.1 °F 34% 29.89 in 10.0 mi WNW 21.9 mph - N/A   Clear
8:53 PM 30.9 °F 16.9 °F 1.9 °F 29% 29.89 in 10.0 mi WNW 26.5 mph 34.5 mph N/A   Clear
9:53 PM 28.0 °F 15.7 °F 1.9 °F 33% 29.91 in 10.0 mi WNW 17.3 mph - N/A   Clear
10:53 PM 28.0 °F 14.9 °F 3.0 °F 34% 29.93 in 10.0 mi WNW 19.6 mph - N/A   Clear
11:53 PM 26.1 °F 15.6 °F 3.0 °F 37% 29.95 in 10.0 mi NNW 11.5 mph - N/A   Clear